Time,TemperatureF,DewpointF,PressureIn,WindDirection,WindDirectionDegrees,WindSpeedMPH,WindSpeedGustMPH,Humidity,HourlyPrecipIn,Conditions,Clouds,dailyrainin,SolarRadiationWatts/m^2,SoftwareType,DateUTC
2013-05-13 00:01:00,57.0,41.0,-100.00,West,280,5.0,9.0,55,0.00,,,-99.99,0.000000,,2013-05-13 07:01:00,
2013-05-13 00:11:00,57.0,41.0,-100.00,West,280,5.0,9.0,55,0.00,,,-99.99,0.000000,,2013-05-13 07:11:00,
2013-05-13 00:42:00,55.0,41.0,-100.00,NW,320,0.0,7.0,58,0.00,,,-99.99,0.000000,,2013-05-13 07:42:00,
2013-05-13 00:52:00,55.0,41.0,-100.00,NW,320,0.0,7.0,58,0.00,,,-99.99,0.000000,,2013-05-13 07:52:00,
2013-05-13 01:02:00,55.0,41.0,-100.00,NW,320,0.0,7.0,58,0.00,,,-99.99,0.000000,,2013-05-13 08:02:00,
2013-05-13 01:11:00,55.0,41.0,-100.00,NW,320,0.0,7.0,58,0.00,,,-99.99,0.000000,,2013-05-13 08:11:00,
2013-05-13 01:42:00,54.0,43.0,-100.00,SSE,153,5.0,6.0,67,0.00,,,0.00,0.000000,,2013-05-13 08:42:00,
2013-05-13 01:52:00,54.0,43.0,-100.00,SSE,153,5.0,6.0,67,0.00,,,0.00,0.000000,,2013-05-13 08:52:00,
2013-05-13 02:01:00,54.0,43.0,-100.00,SSE,153,5.0,6.0,67,0.00,,,0.00,0.000000,,2013-05-13 09:01:00,
2013-05-13 02:11:00,54.0,43.0,-100.00,SSE,153,5.0,6.0,67,0.00,,,0.00,0.000000,,2013-05-13 09:11:00,
2013-05-13 02:33:00,53.0,42.0,-100.00,SE,126,5.0,7.0,66,0.00,,,0.00,0.000000,,2013-05-13 09:33:00,
2013-05-13 02:42:00,53.0,42.0,-100.00,SE,126,5.0,7.0,66,0.00,,,0.00,0.000000,,2013-05-13 09:42:00,
2013-05-13 02:52:00,53.0,42.0,-100.00,SE,126,5.0,7.0,66,0.00,,,0.00,0.000000,,2013-05-13 09:52:00,
2013-05-13 03:02:00,53.0,42.0,-100.00,SE,126,5.0,7.0,66,0.00,,,0.00,0.000000,,2013-05-13 10:02:00,
2013-05-13 03:12:00,53.0,42.0,-100.00,SE,126,5.0,7.0,66,0.00,,,0.00,0.000000,,2013-05-13 10:12:00,
2013-05-13 03:33:00,55.0,42.0,-100.00,SSE,157,4.0,7.0,61,0.00,,,0.00,0.000000,,2013-05-13 10:33:00,
2013-05-13 03:43:00,55.0,42.0,-100.00,SSE,157,4.0,7.0,61,0.00,,,0.00,0.000000,,2013-05-13 10:43:00,
2013-05-13 03:52:00,55.0,42.0,-100.00,SSE,157,4.0,7.0,61,0.00,,,0.00,0.000000,,2013-05-13 10:52:00,
2013-05-13 04:02:00,55.0,42.0,-100.00,SSE,157,4.0,7.0,61,0.00,,,0.00,0.000000,,2013-05-13 11:02:00,
2013-05-13 04:32:00,51.0,42.0,-100.00,WSW,248,6.0,12.0,72,0.00,,,0.00,0.000000,,2013-05-13 11:32:00,
2013-05-13 04:42:00,51.0,42.0,-100.00,WSW,248,6.0,12.0,72,0.00,,,0.00,0.000000,,2013-05-13 11:42:00,
2013-05-13 04:52:00,51.0,42.0,-100.00,WSW,248,6.0,12.0,72,0.00,,,0.00,0.000000,,2013-05-13 11:52:00,
2013-05-13 05:01:00,51.0,42.0,-100.00,WSW,248,6.0,12.0,72,0.00,,,0.00,0.000000,,2013-05-13 12:01:00,
2013-05-13 05:11:00,51.0,42.0,-100.00,WSW,248,6.0,12.0,72,0.00,,,0.00,0.000000,,2013-05-13 12:11:00,
2013-05-13 05:42:00,50.0,43.0,-100.00,NNW,347,1.0,7.0,77,0.00,,,-99.99,0.000000,,2013-05-13 12:42:00,
2013-05-13 05:52:00,50.0,43.0,-100.00,NNW,347,1.0,7.0,77,0.00,,,-99.99,0.000000,,2013-05-13 12:52:00,
2013-05-13 06:01:00,50.0,43.0,-100.00,NNW,347,1.0,7.0,77,0.00,,,-99.99,0.000000,,2013-05-13 13:01:00,
2013-05-13 06:11:00,50.0,43.0,-100.00,NNW,347,1.0,7.0,77,0.00,,,-99.99,0.000000,,2013-05-13 13:11:00,
2013-05-13 06:32:00,52.0,45.0,-100.00,SE,126,2.0,3.0,78,0.00,,,0.00,15.000000,,2013-05-13 13:32:00,
2013-05-13 06:42:00,52.0,45.0,-100.00,SE,126,2.0,3.0,78,0.00,,,0.00,15.000000,,2013-05-13 13:42:00,
2013-05-13 06:52:00,52.0,45.0,-100.00,SE,126,2.0,3.0,78,0.00,,,0.00,15.000000,,2013-05-13 13:52:00,
2013-05-13 07:01:00,52.0,45.0,-100.00,SE,126,2.0,3.0,78,0.00,,,0.00,15.000000,,2013-05-13 14:01:00,
2013-05-13 07:11:00,52.0,45.0,-100.00,SE,126,2.0,3.0,78,0.00,,,0.00,15.000000,,2013-05-13 14:11:00,
2013-05-13 07:42:00,55.0,45.0,-100.00,South,182,2.0,4.0,69,0.00,,,0.00,153.000000,,2013-05-13 14:42:00,
2013-05-13 07:52:00,55.0,45.0,-100.00,South,182,2.0,4.0,69,0.00,,,0.00,153.000000,,2013-05-13 14:52:00,
2013-05-13 08:01:00,55.0,45.0,-100.00,South,182,2.0,4.0,69,0.00,,,0.00,153.000000,,2013-05-13 15:01:00,
2013-05-13 08:11:00,55.0,45.0,-100.00,South,182,2.0,4.0,69,0.00,,,0.00,153.000000,,2013-05-13 15:11:00,
2013-05-13 08:42:00,58.0,47.0,-100.00,NW,306,4.0,7.0,66,0.00,,,-99.99,363.000000,,2013-05-13 15:42:00,
2013-05-13 08:53:00,58.0,47.0,-100.00,NW,306,4.0,7.0,66,0.00,,,-99.99,363.000000,,2013-05-13 15:53:00,
2013-05-13 09:03:00,58.0,47.0,-100.00,NW,306,4.0,7.0,66,0.00,,,-99.99,363.000000,,2013-05-13 16:03:00,
2013-05-13 09:11:00,58.0,47.0,-100.00,NW,306,4.0,7.0,66,0.00,,,-99.99,363.000000,,2013-05-13 16:11:00,
2013-05-13 09:33:00,60.0,46.0,-100.00,NW,304,6.0,12.0,60,0.00,,,0.00,577.000000,,2013-05-13 16:33:00,
2013-05-13 09:43:00,60.0,46.0,-100.00,NW,304,6.0,12.0,60,0.00,,,0.00,577.000000,,2013-05-13 16:43:00,
2013-05-13 09:52:00,60.0,46.0,-100.00,NW,304,6.0,12.0,60,0.00,,,0.00,577.000000,,2013-05-13 16:52:00,
2013-05-13 10:02:00,60.0,46.0,-100.00,NW,304,6.0,12.0,60,0.00,,,0.00,577.000000,,2013-05-13 17:02:00,
2013-05-13 10:12:00,60.0,46.0,-100.00,NW,304,6.0,12.0,60,0.00,,,0.00,577.000000,,2013-05-13 17:12:00,
2013-05-13 10:32:00,62.0,47.0,-100.00,NNW,337,5.0,10.0,59,0.00,,,0.00,408.000000,,2013-05-13 17:32:00,
2013-05-13 10:42:00,62.0,47.0,-100.00,NNW,337,5.0,10.0,59,0.00,,,0.00,408.000000,,2013-05-13 17:42:00,
2013-05-13 10:54:00,62.0,47.0,-100.00,NNW,337,5.0,10.0,59,0.00,,,0.00,408.000000,,2013-05-13 17:54:00,
2013-05-13 11:03:00,62.0,47.0,-100.00,NNW,337,5.0,10.0,59,0.00,,,0.00,408.000000,,2013-05-13 18:03:00,
2013-05-13 11:12:00,62.0,47.0,-100.00,NNW,337,5.0,10.0,59,0.00,,,0.00,408.000000,,2013-05-13 18:12:00,
2013-05-13 12:32:00,60.0,46.0,-100.00,WSW,251,12.0,20.0,60,-99.99,,,0.00,309.000000,,2013-05-13 19:32:00,
2013-05-13 12:44:00,60.0,46.0,-100.00,WSW,251,12.0,20.0,60,-99.99,,,0.00,309.000000,,2013-05-13 19:44:00,
2013-05-13 12:53:00,60.0,46.0,-100.00,WSW,251,12.0,20.0,60,-99.99,,,0.00,309.000000,,2013-05-13 19:53:00,
2013-05-13 13:01:00,60.0,46.0,-100.00,WSW,251,12.0,20.0,60,-99.99,,,0.00,309.000000,,2013-05-13 20:01:00,
2013-05-13 13:11:00,60.0,46.0,-100.00,WSW,251,12.0,20.0,60,-99.99,,,0.00,309.000000,,2013-05-13 20:11:00,
2013-05-13 13:14:00,53.0,46.0,-100.00,WSW,254,15.0,24.0,76,0.00,,,0.00,356.000000,,2013-05-13 20:14:00,
2013-05-13 13:34:00,53.0,46.0,-100.00,WSW,254,15.0,24.0,76,0.00,,,0.00,356.000000,,2013-05-13 20:34:00,
2013-05-13 13:44:00,53.0,46.0,-100.00,WSW,254,15.0,24.0,76,0.00,,,0.00,356.000000,,2013-05-13 20:44:00,
2013-05-13 13:53:00,53.0,46.0,-100.00,WSW,254,15.0,24.0,76,0.00,,,0.00,356.000000,,2013-05-13 20:53:00,
2013-05-13 14:02:00,53.0,46.0,-100.00,WSW,254,15.0,24.0,76,0.00,,,0.00,356.000000,,2013-05-13 21:02:00,
2013-05-13 14:43:00,52.0,44.0,-100.00,SSW,205,10.0,23.0,74,0.00,,,0.00,241.000000,,2013-05-13 21:43:00,
2013-05-13 14:53:00,52.0,44.0,-100.00,SSW,205,10.0,23.0,74,0.00,,,0.00,241.000000,,2013-05-13 21:53:00,
2013-05-13 15:02:00,52.0,44.0,-100.00,SSW,205,10.0,23.0,74,0.00,,,0.00,241.000000,,2013-05-13 22:02:00,
2013-05-13 15:12:00,52.0,44.0,-100.00,SSW,205,10.0,23.0,74,0.00,,,0.00,241.000000,,2013-05-13 22:12:00,
2013-05-13 15:43:00,56.0,46.0,-100.00,SW,227,10.0,18.0,69,0.00,,,0.00,298.000000,,2013-05-13 22:43:00,
2013-05-13 15:52:00,56.0,46.0,-100.00,SW,227,10.0,18.0,69,0.00,,,0.00,298.000000,,2013-05-13 22:52:00,
2013-05-13 16:01:00,56.0,46.0,-100.00,SW,227,10.0,18.0,69,0.00,,,0.00,298.000000,,2013-05-13 23:01:00,
2013-05-13 16:12:00,56.0,46.0,-100.00,SW,227,10.0,18.0,69,0.00,,,0.00,298.000000,,2013-05-13 23:12:00,
2013-05-13 16:42:00,60.0,42.0,-100.00,SW,236,15.0,37.0,52,0.00,,,0.00,759.000000,,2013-05-13 23:42:00,
2013-05-13 16:54:00,60.0,42.0,-100.00,SW,236,15.0,37.0,52,0.00,,,0.00,759.000000,,2013-05-13 23:54:00,
2013-05-13 17:02:00,60.0,42.0,-100.00,SW,236,15.0,37.0,52,0.00,,,0.00,759.000000,,2013-05-14 00:02:00,
2013-05-13 17:12:00,60.0,42.0,-100.00,SW,236,15.0,37.0,52,0.00,,,0.00,759.000000,,2013-05-14 00:12:00,
2013-05-13 18:32:00,56.0,34.0,-100.00,SW,233,19.0,36.0,43,-99.99,,,0.00,508.000000,,2013-05-14 01:32:00,
2013-05-13 18:43:00,56.0,34.0,-100.00,SW,233,19.0,36.0,43,-99.99,,,0.00,508.000000,,2013-05-14 01:43:00,
2013-05-13 18:53:00,56.0,34.0,-100.00,SW,233,19.0,36.0,43,-99.99,,,0.00,508.000000,,2013-05-14 01:53:00,
2013-05-13 19:02:00,56.0,34.0,-100.00,SW,233,19.0,36.0,43,-99.99,,,0.00,508.000000,,2013-05-14 02:02:00,
2013-05-13 19:11:00,56.0,34.0,-100.00,SW,233,19.0,36.0,43,-99.99,,,0.00,508.000000,,2013-05-14 02:11:00,
2013-05-13 19:32:00,53.0,31.0,-100.00,SW,230,13.0,30.0,43,0.00,,,0.00,292.000000,,2013-05-14 02:32:00,
2013-05-13 19:42:00,53.0,31.0,-100.00,SW,230,13.0,30.0,43,0.00,,,0.00,292.000000,,2013-05-14 02:42:00,
2013-05-13 19:52:00,53.0,31.0,-100.00,SW,230,13.0,30.0,43,0.00,,,0.00,292.000000,,2013-05-14 02:52:00,
2013-05-13 20:01:00,53.0,31.0,-100.00,SW,230,13.0,30.0,43,0.00,,,0.00,292.000000,,2013-05-14 03:01:00,
2013-05-13 20:11:00,53.0,31.0,-100.00,SW,230,13.0,30.0,43,0.00,,,0.00,292.000000,,2013-05-14 03:11:00,
2013-05-13 20:33:00,49.0,31.0,-100.00,SW,234,16.0,26.0,49,0.00,,,0.00,90.000000,,2013-05-14 03:33:00,
2013-05-13 20:42:00,49.0,31.0,-100.00,SW,234,16.0,26.0,49,0.00,,,0.00,90.000000,,2013-05-14 03:42:00,
2013-05-13 20:53:00,49.0,31.0,-100.00,SW,234,16.0,26.0,49,0.00,,,0.00,90.000000,,2013-05-14 03:53:00,
2013-05-13 21:02:00,49.0,31.0,-100.00,SW,234,16.0,26.0,49,0.00,,,0.00,90.000000,,2013-05-14 04:02:00,
2013-05-13 21:12:00,49.0,31.0,-100.00,SW,234,16.0,26.0,49,0.00,,,0.00,90.000000,,2013-05-14 04:12:00,
2013-05-13 21:32:00,45.0,32.0,-100.00,West,261,6.0,30.0,60,0.00,,,0.00,2.000000,,2013-05-14 04:32:00,
2013-05-13 21:43:00,45.0,32.0,-100.00,West,261,6.0,30.0,60,0.00,,,0.00,2.000000,,2013-05-14 04:43:00,
2013-05-13 21:53:00,45.0,32.0,-100.00,West,261,6.0,30.0,60,0.00,,,0.00,2.000000,,2013-05-14 04:53:00,
2013-05-13 22:01:00,45.0,32.0,-100.00,West,261,6.0,30.0,60,0.00,,,0.00,2.000000,,2013-05-14 05:01:00,
2013-05-13 22:12:00,45.0,32.0,-100.00,West,261,6.0,30.0,60,0.00,,,0.00,2.000000,,2013-05-14 05:12:00,
2013-05-13 22:32:00,43.0,33.0,-100.00,WSW,256,8.0,15.0,67,0.00,,,0.00,0.000000,,2013-05-14 05:32:00,
2013-05-13 22:42:00,43.0,33.0,-100.00,WSW,256,8.0,15.0,67,0.00,,,0.00,0.000000,,2013-05-14 05:42:00,
2013-05-13 22:52:00,43.0,33.0,-100.00,WSW,256,8.0,15.0,67,0.00,,,0.00,0.000000,,2013-05-14 05:52:00,
2013-05-13 23:01:00,43.0,33.0,-100.00,WSW,256,8.0,15.0,67,0.00,,,0.00,0.000000,,2013-05-14 06:01:00,
2013-05-13 23:12:00,43.0,33.0,-100.00,WSW,256,8.0,15.0,67,0.00,,,0.00,0.000000,,2013-05-14 06:12:00,
2013-05-13 23:32:00,41.0,32.0,-100.00,SW,228,7.0,22.0,70,0.00,,,0.00,0.000000,,2013-05-14 06:32:00,
2013-05-13 23:42:00,41.0,32.0,-100.00,SW,228,7.0,22.0,70,0.00,,,0.00,0.000000,,2013-05-14 06:42:00,
2013-05-13 23:52:00,41.0,32.0,-100.00,SW,228,7.0,22.0,70,0.00,,,0.00,0.000000,,2013-05-14 06:52:00,